| time (UTC) | temp F | wind direction | speed MPH | gust MPH | rain 1hr in | rain 24hr in | rain mn in | humidity % | barometer mb |
| 20260503220716 | 28 | 245 | 3.0 | 4.0 | 0.00 | 0.00 | 0.00 | 68 | 1003.3 |
| 20260503214716 | 29 | 284 | 4.0 | 5.0 | 0.00 | 0.00 | 0.00 | 66 | 1003.2 |
| 20260503212716 | 31 | 228 | 5.0 | 7.0 | 0.00 | 0.00 | 0.00 | 62 | 1002.9 |
| 20260503210716 | 34 | 219 | 7.0 | 9.0 | 0.00 | 0.00 | 0.00 | 55 | 1002.9 |
| 20260503204716 | 34 | 229 | 4.0 | 5.0 | 0.00 | 0.00 | 0.00 | 53 | 1003.0 |
| 20260503202716 | 35 | 202 | 4.0 | 9.0 | 0.00 | 0.00 | 0.00 | 51 | 1003.0 |
| 20260503200716 | 37 | 250 | 8.0 | 15.0 | 0.00 | 0.00 | 0.00 | 45 | 1002.9 |
| 20260503194715 | 37 | 281 | 6.0 | 14.0 | 0.00 | 0.00 | 0.00 | 47 | 1002.9 |
| 20260503192715 | 36 | 224 | 4.0 | 6.0 | 0.00 | 0.00 | 0.00 | 47 | 1002.9 |
| 20260503190715 | 37 | 257 | 6.0 | 10.0 | 0.00 | 0.00 | 0.00 | 46 | 1002.8 |
| 20260503184716 | 37 | 256 | 9.0 | 16.0 | 0.00 | 0.00 | 0.00 | 43 | 1002.8 |
| 20260503182716 | 38 | 278 | 7.0 | 13.0 | 0.00 | 0.00 | 0.00 | 41 | 1002.7 |
| 20260503180715 | 37 | 235 | 6.0 | 9.0 | 0.00 | 0.00 | 0.00 | 43 | 1002.8 |
| 20260503174716 | 37 | 281 | 6.0 | 9.0 | 0.00 | 0.00 | 0.00 | 40 | 1002.7 |
| 20260503172721 | 38 | 277 | 9.0 | 13.0 | 0.00 | 0.00 | 0.00 | 39 | 1002.6 |
| 20260503170715 | 39 | 270 | 12.0 | 17.0 | 0.00 | 0.00 | 0.00 | 37 | 1002.5 |
| 20260503150714 | 41 | 263 | 19.0 | 27.0 | 0.00 | 0.00 | 0.00 | 30 | 1002.1 |
| 20260503130714 | 40 | 291 | 19.0 | 27.0 | 0.00 | 0.00 | 0.00 | 35 | 1002.3 |
| 20260503110713 | 39 | 263 | 20.0 | 28.0 | 0.00 | 0.00 | 0.00 | 37 | 1002.1 |
| 20260503080713 | 38 | 270 | 18.0 | 24.0 | 0.00 | 0.00 | 0.00 | 41 | 1001.3 |
| 20260503072713 | 37 | 256 | 18.0 | 27.0 | 0.00 | 0.00 | 0.00 | 43 | 1001.0 |
| 20260503070713 | 36 | 261 | 17.0 | 24.0 | 0.00 | 0.00 | 0.00 | 45 | 1000.9 |
| 20260503054713 | 35 | 281 | 14.0 | 19.0 | 0.00 | 0.00 | 0.00 | 49 | 1000.8 |
| 20260503052712 | 35 | 264 | 12.0 | 18.0 | 0.00 | 0.00 | 0.00 | 51 | 1000.8 |
| 20260503050712 | 35 | 275 | 13.0 | 18.0 | 0.00 | 0.00 | 0.00 | 51 | 1000.7 |
| 20260503044712 | 34 | 289 | 9.0 | 15.0 | 0.00 | 0.00 | 0.00 | 54 | 1000.8 |
| 20260503042712 | 34 | 298 | 10.0 | 16.0 | 0.00 | 0.00 | 0.00 | 56 | 1000.6 |
| 20260503040712 | 33 | 278 | 11.0 | 16.0 | 0.00 | 0.00 | 0.00 | 57 | 1000.5 |
| 20260503034712 | 33 | 275 | 8.0 | 10.0 | 0.00 | 0.00 | 0.00 | 58 | 1000.4 |
| 20260503032712 | 32 | 279 | 7.0 | 13.0 | 0.00 | 0.00 | 0.00 | 62 | 1000.4 |
| 20260503030713 | 32 | 277 | 10.0 | 18.0 | 0.00 | 0.00 | 0.00 | 64 | 1000.4 |
| 20260503024713 | 31 | 259 | 10.0 | 14.0 | 0.00 | 0.00 | 0.00 | 67 | 1000.4 |
| 20260503022712 | 30 | 252 | 10.0 | 13.0 | 0.00 | 0.00 | 0.00 | 69 | 1000.6 |
| 20260503020712 | 29 | 241 | 8.0 | 9.0 | 0.00 | 0.00 | 0.00 | 73 | 1000.7 |
| 20260503014713 | 28 | 241 | 9.0 | 12.0 | 0.00 | 0.00 | 0.00 | 74 | 1000.6 |
| 20260503012712 | 29 | 253 | 7.0 | 10.0 | 0.00 | 0.00 | 0.00 | 70 | 1000.6 |
| 20260503010713 | 29 | 245 | 8.0 | 10.0 | 0.00 | 0.00 | 0.00 | 70 | 1000.5 |
| 20260503004713 | 29 | 239 | 9.0 | 11.0 | 0.00 | 0.00 | 0.00 | 70 | 1000.5 |
| 20260503002713 | 31 | 274 | 6.0 | 9.0 | 0.00 | 0.00 | 0.00 | 65 | 1000.3 |
| 20260503000712 | 30 | 251 | 6.0 | 8.0 | 0.00 | 0.00 | 0.00 | 68 | 1000.4 |
| 20260502234712 | 31 | 243 | 8.0 | 11.0 | 0.00 | 0.00 | 0.00 | 67 | 1000.2 |
| 20260502232712 | 31 | 266 | 6.0 | 10.0 | 0.00 | 0.00 | 0.00 | 65 | 1000.3 |
| 20260502230712 | 32 | 280 | 5.0 | 8.0 | 0.00 | 0.00 | 0.00 | 62 | 1000.2 |
| 20260502224712 | 33 | 274 | 8.0 | 10.0 | 0.00 | 0.00 | 0.00 | 61 | 1000.0 |
| 20260502222712 | 33 | 253 | 8.0 | 11.0 | 0.00 | 0.00 | 0.00 | 61 | 1000.0 |